TimeAKDT,TemperatureF,Dew PointF,Humidity,Sea Level PressureIn,VisibilityMPH,Wind Direction,Wind SpeedMPH,Gust SpeedMPH,PrecipitationIn,Events,Conditions,WindDirDegrees,DateUTC
12:53 AM,28.9,27.0,92,30.12,10.0,WNW,3.5,-,N/A,,Clear,300,2012-10-29 08:53:00
1:21 AM,28.4,28.4,100,30.12,10.0,WNW,3.5,-,N/A,,Mostly Cloudy,290,2012-10-29 09:21:00
1:53 AM,30.2,28.4,93,30.13,10.0,West,3.5,-,N/A,,Overcast,270,2012-10-29 09:53:00
2:53 AM,35.1,32.0,89,30.14,10.0,WNW,3.5,-,N/A,,Overcast,300,2012-10-29 10:53:00
3:53 AM,33.1,30.9,92,30.15,10.0,Calm,Calm,-,N/A,,Overcast,0,2012-10-29 11:53:00
4:53 AM,32.0,28.9,88,30.15,10.0,West,5.8,-,N/A,,Mostly Cloudy,280,2012-10-29 12:53:00
5:08 AM,32.0,28.4,87,30.15,10.0,WNW,3.5,-,N/A,,Scattered Clouds,290,2012-10-29 13:08:00
5:46 AM,30.2,28.4,93,30.15,10.0,West,6.9,-,N/A,,Mostly Cloudy,280,2012-10-29 13:46:00
5:53 AM,30.9,28.9,92,30.16,10.0,West,8.1,-,N/A,,Mostly Cloudy,280,2012-10-29 13:53:00
6:53 AM,30.9,28.9,92,30.16,10.0,West,4.6,-,N/A,,Mostly Cloudy,280,2012-10-29 14:53:00
7:53 AM,33.1,30.9,92,30.16,10.0,NW,4.6,-,N/A,,Overcast,310,2012-10-29 15:53:00
8:32 AM,33.8,32.0,93,30.16,10.0,NW,5.8,-,N/A,,Overcast,310,2012-10-29 16:32:00
8:53 AM,33.1,30.9,92,30.17,10.0,NW,5.8,-,N/A,,Overcast,320,2012-10-29 16:53:00
9:53 AM,35.1,33.1,92,30.18,10.0,NW,8.1,-,N/A,,Overcast,320,2012-10-29 17:53:00
10:53 AM,37.0,34.0,89,30.18,10.0,NNW,6.9,-,N/A,,Overcast,330,2012-10-29 18:53:00
11:53 AM,37.9,34.0,86,30.19,10.0,NNW,9.2,-,N/A,,Overcast,330,2012-10-29 19:53:00
12:53 PM,39.0,33.1,79,30.19,10.0,WNW,10.4,-,N/A,,Overcast,290,2012-10-29 20:53:00
1:17 PM,37.4,33.8,87,30.20,10.0,WNW,11.5,-,N/A,,Overcast,300,2012-10-29 21:17:00
1:53 PM,37.9,33.1,83,30.21,10.0,NW,9.2,-,N/A,,Overcast,310,2012-10-29 21:53:00
2:53 PM,37.9,33.1,83,30.20,10.0,NNW,12.7,-,N/A,,Overcast,340,2012-10-29 22:53:00
3:53 PM,37.0,33.1,86,30.20,10.0,WNW,12.7,-,N/A,,Overcast,300,2012-10-29 23:53:00
4:53 PM,37.9,33.1,83,30.20,10.0,NNW,10.4,-,N/A,,Overcast,330,2012-10-30 00:53:00
5:53 PM,37.9,32.0,79,30.20,10.0,NW,9.2,-,N/A,,Overcast,320,2012-10-30 01:53:00
6:04 PM,37.4,32.0,81,30.20,10.0,NNW,8.1,-,N/A,,Overcast,330,2012-10-30 02:04:00
6:53 PM,37.9,32.0,79,30.20,10.0,NNW,10.4,-,N/A,,Overcast,340,2012-10-30 02:53:00
7:53 PM,37.9,32.0,79,30.21,10.0,NNW,9.2,-,N/A,,Overcast,340,2012-10-30 03:53:00
8:00 PM,37.4,33.8,87,30.20,10.0,NNW,10.4,-,N/A,,Overcast,340,2012-10-30 04:00:00
8:53 PM,37.0,33.1,86,30.21,10.0,North,13.8,-,N/A,,Overcast,350,2012-10-30 04:53:00
9:53 PM,36.0,32.0,86,30.22,10.0,NNW,11.5,-,N/A,,Overcast,340,2012-10-30 05:53:00
10:53 PM,35.6,30.2,81,30.23,10.0,North,12.7,-,N/A,,Overcast,350,2012-10-30 06:53:00
11:36 PM,37.4,30.2,75,30.22,10.0,North,16.1,-,N/A,,Overcast,360,2012-10-30 07:36:00
11:53 PM,37.0,30.9,79,30.23,10.0,North,12.7,-,N/A,,Overcast,360,2012-10-30 07:53:00